[[{"header":{"parameterUnit":"m.s-1","parameterCategory":1,"la1":30.2992,"la2":30.254,"lo1":-89.0895,"lo2":-89.0443,"dy":0.0025,"dx":0.0025,"nx":19,"ny":19,"refTime":"2026-05-15T09:00:00:Z","depth":0,"parameterNumber":2,"parameterNumberName":"U-component_of_WINDS"},"data":[0,0,0,-1.7746,-1.7747,-1.7805,-1.7805,-1.7891,-1.7892,0,0,0,0,0,0,0,0,0,0,0,-1.7737,-1.7737,-1.7746,-1.7747,-1.7804,-1.7805,-1.7891,-1.7892,0,0,0,0,0,0,0,0,0,0,0,-1.7736,-1.7737,-1.7738,-1.7748,-1.7804,-1.7805,-1.7891,-1.7843,0,0,0,0,0,0,0,0,0,0,-1.7785,-1.7784,-1.7737,-1.7738,-1.7748,-1.7804,-1.7805,-1.7841,-1.7846,-1.7871,0,-1.7895,0,-1.7895,-1.7899,-1.7899,0,0,0,-1.7742,-1.778,-1.7788,-1.7738,-1.7749,-1.7804,-1.7777,-1.7843,-1.785,-1.7878,-1.7896,-1.7899,-1.7896,-1.7899,-1.79,-1.8061,-1.8062,0,0,-1.7739,-1.7751,-1.7784,-1.7792,-1.7784,-1.7775,-1.7779,-1.7847,-1.7867,-1.7896,-1.79,-1.7898,-1.79,-1.7901,-1.806,-1.8061,0,0,0,-1.7733,-1.7749,-1.7756,-1.7789,-1.7798,-1.7777,-1.7781,-1.7864,-1.7865,-1.7901,-1.7899,-1.7901,-1.7902,-1.8059,-1.8061,-1.8124,0,0,0,-1.7731,-1.7746,-1.7754,-1.7763,-1.7797,-1.7832,-1.7797,-1.786,-1.7868,-1.7898,-1.7901,-1.7903,-1.8058,-1.806,-1.8119,-1.8152,0,0,0,-1.773,-1.7746,-1.7757,-1.7763,-1.7788,-1.783,-1.7835,-1.7862,-1.7867,-1.7899,-1.7903,-1.8057,-1.806,-1.8116,-1.8146,-1.8199,0,0,0,-1.7733,-1.7812,-1.7758,-1.7845,-1.7788,-1.7868,-1.7835,-1.7894,-1.793,-1.7901,-1.8058,-1.8061,-1.8115,-1.8142,-1.8195,-1.8246,-1.8269,0,0,-1.7839,-1.7825,-1.7875,-1.7828,-1.7922,-1.7859,-1.7962,-1.7982,-1.7974,-1.8033,-1.8036,-1.8121,-1.8145,-1.8198,-1.8387,-1.8405,0,0,0,-1.7913,-1.7949,-1.7971,-1.8006,-1.8023,-1.8041,-1.8044,-1.8052,-1.8101,-1.8007,-1.8153,-1.8167,-1.8198,-1.8222,-1.8237,-1.8263,-1.8072,-1.8072,-1.8071,-1.8083,-1.8067,-1.8149,-1.8141,-1.8175,-1.8177,-1.8204,-1.8214,-1.8189,-1.8224,-1.8242,-1.8359,-1.8388,-1.8399,-1.8426,-1.8267,-1.8267,-1.8267,-1.8267,-1.8238,-1.8288,-1.8252,-1.8319,-1.8302,-1.8359,-1.8364,-1.8344,-1.8395,-1.8344,-1.837,-1.8317,-1.8419,-1.8442,-1.8272,-1.8271,-1.8271,-1.827,-1.827,-1.8349,-1.837,-1.8377,-1.8425,-1.8464,-1.8452,-1.8502,-1.8485,-1.847,-1.8495,-1.8513,-1.8512,-1.851,-1.8504,-1.8505,-1.8505,-1.8506,-1.8506,-1.8506,-1.8462,-1.8468,-1.8512,-1.8537,-1.8556,-1.858,-1.8583,-1.8602,-1.8619,-1.8603,-1.8603,-1.8575,-1.8431,-1.8396,-1.8512,-1.8511,-1.851,-1.851,-1.8509,-1.8628,-1.8587,-1.8656,-1.8675,-1.8703,-1.8743,-1.872,-1.876,-1.8773,-1.8799,-1.8765,-1.866,-1.8645,-1.8633,-1.8604,-1.8767,-1.8767,-1.8767,-1.8767,-1.8723,-1.8712,-1.8778,-1.8811,-1.8841,-1.8827,-1.8905,-1.8908,-1.8905,-1.8912,-1.8886,-1.8845,-1.8833,-1.8825,-1.8808,-1.8781,-1.8986,-1.8986,-1.8986,-1.8825,-1.8816,-1.8886,-1.8882,-1.8902,-1.892,-1.8993,-1.9033,-1.9021,-1.8995,-1.8918,-1.8909,-1.8843,-1.8822,-1.8797,-1.8772,-1.8721,0,0]},{"header":{"parameterUnit":"m.s-1","parameterCategory":1,"la1":30.2992,"la2":30.254,"lo1":-89.0895,"lo2":-89.0443,"dy":0.0025,"dx":0.0025,"nx":19,"ny":19,"refTime":"2026-05-15T09:00:00:Z","depth":0,"parameterNumber":3,"parameterNumberName":"V-component_of_WINDS"},"data":[0,0,0,3.972,3.9721,3.9726,3.9726,3.9762,3.9763,0,0,0,0,0,0,0,0,0,0,0,3.9738,3.9739,3.972,3.9721,3.9726,3.9726,3.9762,3.9763,0,0,0,0,0,0,0,0,0,0,0,3.9737,3.9738,3.974,3.9721,3.9726,3.9726,3.9762,3.9747,0,0,0,0,0,0,0,0,0,0,3.9737,3.9772,3.9738,3.974,3.9721,3.9726,3.9726,3.9746,3.9748,3.9773,0,3.9801,0,3.9783,3.9767,3.9768,0,0,0,3.9706,3.9771,3.9755,3.974,3.9721,3.9726,3.972,3.9747,3.9749,3.9776,3.9801,3.9802,3.9783,3.9768,3.9768,3.996,3.9962,0,0,3.9706,3.9749,3.9753,3.9757,3.976,3.972,3.972,3.9748,3.9778,3.9801,3.9802,3.9784,3.9768,3.9769,3.9959,3.9961,0,0,0,3.9715,3.975,3.9732,3.9757,3.9756,3.972,3.9721,3.9777,3.9767,3.9802,3.9784,3.9769,3.9769,3.9957,3.9959,4.0079,0,0,0,3.9714,3.9755,3.9733,3.9759,3.9756,3.9767,3.975,3.9766,3.9767,3.9784,3.9769,3.977,3.9955,3.9958,4.0072,4.0128,0,0,0,3.9731,3.9756,3.9764,3.9762,3.9766,3.9765,3.9757,3.9765,3.9757,3.9768,3.977,3.9954,3.9958,4.0065,4.0117,4.019,0,0,0,3.9761,3.9872,3.9767,3.9882,3.9766,3.984,3.9756,3.9809,3.9832,3.9769,3.9955,3.9959,4.0063,4.0111,4.0183,4.0258,4.0293,0,0,3.9924,3.9893,3.9957,3.9863,3.9967,3.9835,3.9955,3.9936,3.9897,3.9941,3.9945,4.0074,4.0117,4.0188,4.0478,4.0507,0,0,0,4.0023,4.007,4.0088,4.0112,4.0099,4.0092,4.0049,4.0041,4.0076,3.9929,4.0119,4.0143,4.0183,4.0216,4.0241,4.0271,3.9977,3.9976,3.9976,4.0317,4.026,4.0362,4.0306,4.033,4.0283,4.0296,4.0277,4.0215,4.026,4.0273,4.0456,4.0497,4.0515,4.0548,4.0308,4.0309,4.0309,4.031,4.0549,4.0605,4.0517,4.0584,4.0523,4.0578,4.0536,4.0489,4.0531,4.0443,4.0475,4.0383,4.0548,4.0573,4.0318,4.0317,4.0316,4.0315,4.0314,4.0734,4.075,4.0739,4.0765,4.0791,4.073,4.0773,4.0716,4.0663,4.0695,4.0701,4.0699,4.0688,4.0702,4.0703,4.0703,4.0704,4.0704,4.0705,4.093,4.0912,4.0956,4.095,4.0956,4.0957,4.0909,4.0913,4.0903,4.0858,4.0857,4.0789,4.0575,4.0522,4.0714,4.0713,4.0711,4.071,4.071,4.1185,4.1117,4.1185,4.1191,4.1177,4.1206,4.1132,4.1145,4.1139,4.1162,4.1086,4.0937,4.0901,4.0881,4.0836,4.1099,4.1099,4.1099,4.1099,4.134,4.1316,4.137,4.1383,4.1389,4.1328,4.1404,4.1367,4.1318,4.1311,4.1264,4.1201,4.1183,4.1157,4.1131,4.1088,4.1409,4.1409,4.141,4.1493,4.1466,4.1542,4.1493,4.1477,4.1464,4.1532,4.1549,4.148,4.1421,4.1303,4.129,4.1187,4.1156,4.1095,4.1057,4.0977,0,0]}]]